Showing default

HULIANWANG DIGUI-125, 67065

Orbit data source: Space-Track

HULIANWANG DIGUI-125, 67065 is a payload satellite owned by Zhongguo Xingwang (CN) in LEO that was launched on Thu, 11 Dec 2025 UTC via a CHANG ZHENG 12 launch vehicle from the Wenchang Satellite Launch Center (WSC). Payload-class satellites include a variety of spacecraft equipped with specific instruments for various scientific and technological missions. These include communications satellites like Starlink; space stations such as the ISS; scientific satellites like the Hubble; Earth observation satellites from companies like Planet Labs, Umbra, and HawkEye 360; GPS; miniature CubeSats for education and research; and military/defense satellites.

Loading next visibility...
Identifier
67065, 2025-295G
Orbit
LEO
Country
Flag of CNCN / PRC
Related business
Manufacturer
SECM
Mission
Operational Civil Communications
Bus & Motor
XINGWANG S, Unknown motor
Mass
~800 kg wet, ~800 kg dry
Launch date (UTC)
2025-12-11 (6 months ago)
Launch vehicle
CHANG ZHENG 12
Launch site
Wenchang Satellite Launch Center (WSC)
Object type
Payload
Rocket body
Debris
Shape & HBR
Box + 2 Pan, 14.5 m
Radar Cross Section
5.935 m², Large (>1 m²)

Expand to show TLE details & history
Last TLE update: 1 day ago

TLE from 1 day ago
0 HULIANWANG DIGUI-125
1 67065U 25295G   26170.81294796 -.00000094  00000-0  65595-4 0  9997
2 67065  50.0003  15.8434 0001025  93.1701 266.9288 13.29328371 25858
Epoch: 2026-06-19T19:30Z
TLE epoch observation values (Epoch: 2026-06-19T19:30:38.703Z)
Latitude
-0.00006°
Longitude
175.14554°
Altitude
1,149.845 km
Speed
7.279 km/s
True Right ascension
01h 03m 22s
True Declination
0° 00' 00"
Sunlit
Object was in daylight at epoch
Visualization orbit readout
Latitude
Unknown
Longitude
Unknown
Altitude
Unknown
Speed
Unknown
Apparent Right ascension
Unknown
Apparent Declination
Unknown
Sunlit
N/A
Visualization observer readout
Local Sidereal Time
07:13:44
Azimuth
Unknown
Elevation
Unknown
Doppler factor
Unknown
Orbital elements
Apogee altitude
1,150.775 km
Perigee altitude
1,149.231 km
Semi-major axis
7,528.14 km
Eccentricity
0.0001
Inclination
50.0003°
RAAN
15.8434°
Arg. of periapsis
93.1701°
True anomaly
266.91707°
Mean anomaly
266.9288°
Eccentric anomaly
266.92294°
Mean motion
3.32286 °/min
Orbital period
108.34 mins
BSTAR
0.000065595
Loading maneuver chart data...
Computing Atmospheric mass density...
Loading historical data...
Loading historical data...
Loading historical data...
Loading historical data...
Loading historical data...
Loading historical data...
Loading historical data...

Documentation

Showing up to 5 results
|